| time (UTC) | temp F | wind direction | speed MPH | gust MPH | rain 1hr in | rain 24hr in | rain mn in | humidity % | barometer mb |
| 20260503223518 | 57 | 134 | 1.0 | 4.0 | 0.00 | 0.45 | 0.00 | 95 | 1011.0 |
| 20260503222503 | 57 | 134 | 1.0 | 4.0 | 0.00 | 0.45 | 0.00 | 95 | 1011.1 |
| 20260503221703 | 57 | 132 | 2.0 | 5.0 | 0.00 | 0.45 | 0.45 | 95 | 1011.1 |
| 20260503221510 | 57 | 134 | 1.0 | 5.0 | 0.00 | 0.45 | 0.00 | 95 | 1011.1 |
| 20260503220515 | 57 | 132 | 1.0 | 3.0 | 0.00 | 0.45 | 0.00 | 95 | 1011.2 |
| 20260503214506 | 57 | 156 | 2.0 | 5.0 | 0.00 | 0.45 | 0.45 | 94 | 1011.1 |
| 20260503213507 | 57 | 122 | 2.0 | 7.0 | 0.00 | 0.45 | 0.45 | 94 | 1011.1 |
| 20260503212609 | 58 | 161 | 4.0 | 8.0 | 0.00 | 0.45 | 0.45 | 94 | 1011.3 |
| 20260503212510 | 58 | 158 | 3.0 | 7.0 | 0.00 | 0.45 | 0.45 | 94 | 1011.2 |
| 20260503210459 | 58 | 205 | 3.0 | 8.0 | 0.00 | 0.45 | 0.45 | 94 | 1011.3 |
| 20260503205456 | 58 | 147 | 3.0 | 8.0 | 0.00 | 0.45 | 0.45 | 94 | 1011.0 |
| 20260503204457 | 58 | 199 | 3.0 | 7.0 | 0.00 | 0.45 | 0.45 | 94 | 1011.0 |
| 20260503203458 | 58 | 119 | 4.0 | 8.0 | 0.00 | 0.45 | 0.45 | 94 | 1010.9 |
| 20260503203113 | 58 | 131 | 3.0 | 7.0 | 0.00 | 0.45 | 0.45 | 94 | 1011.0 |
| 20260503201450 | 58 | 149 | 3.0 | 7.0 | 0.00 | 0.45 | 0.45 | 94 | 1011.0 |
| 20260503200449 | 58 | 141 | 3.0 | 7.0 | 0.00 | 0.45 | 0.45 | 94 | 1011.0 |
| 20260503195446 | 58 | 150 | 2.0 | 6.0 | 0.00 | 0.45 | 0.45 | 94 | 1011.0 |
| 20260503194447 | 58 | 132 | 3.0 | 6.0 | 0.00 | 0.45 | 0.45 | 93 | 1010.8 |
| 20260503193438 | 58 | 138 | 3.0 | 8.0 | 0.00 | 0.45 | 0.45 | 93 | 1010.8 |
| 20260503192441 | 58 | 136 | 3.0 | 6.0 | 0.00 | 0.45 | 0.45 | 93 | 1010.7 |
| 20260503191441 | 59 | 152 | 2.0 | 5.0 | 0.00 | 0.45 | 0.45 | 93 | 1010.7 |
| 20260503190437 | 59 | 144 | 1.0 | 2.0 | 0.00 | 0.45 | 0.45 | 93 | 1010.7 |
| 20260503185432 | 59 | 144 | 0.0 | 4.0 | 0.00 | 0.45 | 0.45 | 92 | 1010.4 |
| 20260503184433 | 59 | 144 | 2.0 | 4.0 | 0.00 | 0.45 | 0.45 | 92 | 1010.3 |
| 20260503184422 | 59 | 142 | 1.0 | 6.0 | 0.00 | 0.45 | 0.45 | 92 | 1010.3 |
| 20260503182437 | 60 | 155 | 1.0 | 4.0 | 0.00 | 0.45 | 0.45 | 91 | 1010.4 |
| 20260503181435 | 60 | 155 | 2.0 | 4.0 | 0.00 | 0.45 | 0.45 | 91 | 1010.3 |
| 20260503180852 | 61 | 135 | 1.0 | 4.0 | 0.00 | 0.46 | 0.45 | 91 | 1010.0 |
| 20260503180803 | 61 | 119 | 1.0 | 4.0 | 0.00 | 0.49 | 0.45 | 92 | 1010.2 |
| 20260503180508 | 60 | 143 | 2.0 | 6.0 | 0.00 | 0.46 | 0.45 | 90 | 1010.2 |
| 20260503173443 | 60 | 134 | 1.0 | 5.0 | 0.00 | 0.50 | 0.45 | 92 | 1010.1 |
| 20260503172449 | 60 | 114 | 3.0 | 6.0 | 0.00 | 0.50 | 0.45 | 92 | 1010.2 |
| 20260503171430 | 60 | 181 | 2.0 | 5.0 | 0.01 | 0.51 | 0.45 | 93 | 1010.0 |
| 20260503171410 | 60 | 173 | 2.0 | 5.0 | 0.02 | 0.52 | 0.45 | 94 | 1010.1 |
| 20260503130956 | 68 | 184 | 5.0 | 12.0 | 0.00 | 0.34 | 0.27 | 75 | 1010.4 |
| 20260503130509 | 67 | 169 | 6.0 | 14.0 | 0.00 | 0.34 | 0.27 | 76 | 1010.2 |
| 20260503110749 | 62 | 227 | 4.0 | 12.0 | 0.00 | 0.34 | 0.27 | 88 | 1010.5 |
| 20260503110646 | 62 | 214 | 4.0 | 8.0 | 0.00 | 0.34 | 0.27 | 91 | 1010.5 |
| 20260503110433 | 62 | 179 | 5.0 | 13.0 | 0.00 | 0.34 | 0.27 | 88 | 1010.5 |
| 20260503090403 | 60 | 115 | 2.0 | 6.0 | 0.00 | 0.19 | 0.12 | 92 | 1010.7 |
| 20260503081408 | 59 | 200 | 3.0 | 7.0 | 0.01 | 0.19 | 0.12 | 92 | 1010.8 |
| 20260503080708 | 58 | 250 | 3.0 | 10.0 | 0.02 | 0.18 | 0.11 | 94 | 1010.8 |
| 20260503080412 | 59 | 180 | 2.0 | 6.0 | 0.02 | 0.19 | 0.12 | 93 | 1010.8 |
| 20260503072354 | 58 | 152 | 2.0 | 7.0 | 0.05 | 0.18 | 0.11 | 95 | 1010.8 |
| 20260503071401 | 58 | 241 | 3.0 | 9.0 | 0.06 | 0.18 | 0.11 | 94 | 1010.7 |
| 20260503071350 | 58 | 175 | 2.0 | 6.0 | 0.07 | 0.17 | 0.10 | 94 | 1010.7 |
| 20260503054354 | 60 | 177 | 3.0 | 8.0 | 0.00 | 0.09 | 0.02 | 92 | 1010.2 |
| 20260503053343 | 59 | 173 | 2.0 | 8.0 | 0.00 | 0.09 | 0.02 | 92 | 1010.2 |
| 20260503052341 | 59 | 222 | 2.0 | 6.0 | 0.00 | 0.09 | 0.02 | 92 | 1010.2 |
| 20260503051340 | 59 | 157 | 3.0 | 6.0 | 0.00 | 0.09 | 0.02 | 92 | 1010.0 |
| 20260503050341 | 59 | 136 | 2.0 | 5.0 | 0.00 | 0.09 | 0.02 | 92 | 1010.0 |
| 20260503050256 | 59 | 151 | 2.0 | 6.0 | 0.00 | 0.09 | 0.02 | 92 | 1009.9 |
| 20260503044341 | 59 | 167 | 2.0 | 7.0 | 0.00 | 0.09 | 0.02 | 92 | 1009.9 |
| 20260503043333 | 59 | 156 | 2.0 | 4.0 | 0.00 | 0.09 | 0.02 | 92 | 1010.2 |
| 20260503042332 | 59 | 136 | 2.0 | 5.0 | 0.00 | 0.09 | 0.02 | 92 | 1010.2 |
| 20260503041337 | 59 | 148 | 2.0 | 7.0 | 0.00 | 0.09 | 0.02 | 92 | 1010.2 |
| 20260503041233 | 59 | 140 | 2.0 | 5.0 | 0.00 | 0.09 | 0.02 | 92 | 1010.2 |
| 20260503035328 | 59 | 142 | 3.0 | 7.0 | 0.00 | 0.09 | 0.02 | 92 | 1010.2 |
| 20260503034509 | 59 | 156 | 2.0 | 6.0 | 0.00 | 0.09 | 0.02 | 92 | 1010.3 |
| 20260503034340 | 59 | 169 | 2.0 | 6.0 | 0.00 | 0.09 | 0.02 | 92 | 1010.3 |
| 20260503032327 | 59 | 143 | 3.0 | 6.0 | 0.00 | 0.09 | 0.02 | 93 | 1010.6 |
| 20260503031338 | 59 | 163 | 3.0 | 7.0 | 0.00 | 0.09 | 0.02 | 93 | 1010.4 |
| 20260503030339 | 59 | 132 | 2.0 | 5.0 | 0.00 | 0.09 | 0.02 | 93 | 1010.3 |
| 20260503025327 | 59 | 123 | 3.0 | 6.0 | 0.00 | 0.09 | 0.02 | 92 | 1010.5 |
| 20260503024329 | 59 | 164 | 3.0 | 6.0 | 0.00 | 0.09 | 0.02 | 92 | 1010.7 |
| 20260503023820 | 59 | 140 | 3.0 | 6.0 | 0.00 | 0.13 | 0.02 | 92 | 1010.8 |
| 20260503023358 | 59 | 142 | 3.0 | 7.0 | 0.00 | 0.10 | 0.02 | 92 | 1010.5 |
| 20260503022351 | 59 | 142 | 3.0 | 5.0 | 0.00 | 0.13 | 0.02 | 92 | 1010.6 |
| 20260503021545 | 60 | 153 | 3.0 | 5.0 | 0.00 | 0.13 | 0.02 | 92 | 1010.8 |
| 20260503021350 | 59 | 130 | 3.0 | 7.0 | 0.00 | 0.13 | 0.02 | 92 | 1010.7 |
| 20260503014329 | 60 | 155 | 3.0 | 6.0 | 0.00 | 0.13 | 0.02 | 92 | 1011.0 |
| 20260503013327 | 60 | 137 | 2.0 | 7.0 | 0.00 | 0.13 | 0.02 | 92 | 1011.0 |
| 20260503012327 | 60 | 128 | 3.0 | 6.0 | 0.01 | 0.21 | 0.02 | 92 | 1011.0 |
| 20260503011334 | 60 | 105 | 2.0 | 5.0 | 0.02 | 0.21 | 0.02 | 91 | 1011.0 |
| 20260503011312 | 60 | 132 | 2.0 | 5.0 | 0.02 | 0.21 | 0.02 | 91 | 1011.4 |
| 20260503005447 | 60 | 209 | 3.0 | 8.0 | 0.00 | 0.20 | 0.00 | 91 | 1012.2 |
| 20260503005330 | 60 | 150 | 3.0 | 6.0 | 0.02 | 0.21 | 0.02 | 90 | 1011.6 |
| 20260503004844 | 60 | 129 | 3.0 | 8.0 | 0.02 | 0.21 | 0.02 | 89 | 1011.8 |
| 20260503004431 | 60 | 134 | 3.0 | 7.0 | 0.02 | 0.21 | 0.02 | 90 | 1011.7 |
| 20260503002407 | 61 | 154 | 2.0 | 7.0 | 0.01 | 0.20 | 0.01 | 89 | 1011.9 |
| 20260503001351 | 60 | 148 | 3.0 | 9.0 | 0.00 | 0.20 | 0.00 | 90 | 1012.1 |
| 20260503000349 | 60 | 184 | 2.0 | 6.0 | 0.00 | 0.20 | 0.00 | 91 | 1012.1 |
| 20260502234321 | 60 | 134 | 4.0 | 9.0 | 0.00 | 0.20 | 0.00 | 91 | 1012.2 |
| 20260502233322 | 60 | 126 | 4.0 | 7.0 | 0.00 | 0.20 | 0.00 | 91 | 1012.1 |
| 20260502233244 | 60 | 130 | 4.0 | 7.0 | 0.00 | 0.20 | 0.00 | 91 | 1012.0 |
| 20260502231320 | 60 | 138 | 3.0 | 6.0 | 0.00 | 0.20 | 0.00 | 92 | 1012.0 |
| 20260502231238 | 60 | 143 | 3.0 | 6.0 | 0.00 | 0.20 | 0.00 | 92 | 1012.0 |
| 20260502225321 | 60 | 130 | 2.0 | 5.0 | 0.00 | 0.20 | 0.00 | 92 | 1012.2 |
| 20260502224317 | 60 | 138 | 2.0 | 5.0 | 0.00 | 0.20 | 0.00 | 92 | 1012.1 |